Location: Schommer Observatory
(40.5200°N, 74.4500°W)
Time: 08:32:56
(UTC-04:00)

OTV 5 (USA 277) - Pass Details

Date: 12 October 2017
Orbit: 404 x 417 km, 43.0° (Epoch: 07 September)

Event Time Altitude Azimuth Distance (km) Brightness Sun altitude
Rises 19:37:52 0° 255° (WSW) 2,349 ? -15.2°
Reaches altitude 10° 19:39:58 10° 257° (WSW) 1,488 ? -15.6°
Maximum altitude 19:43:21 81° 345° (NNW) 425 ? -16.3°
Enters shadow 19:44:25 41° 67° (ENE) 621 ? -16.5°
